Regional Weather Roundup
Issued by NWS

Home | Current Version | Previous Version | Graphics & Text | Print | Product List | Glossary On
Versions: 1 2 3 4 5 6 7 8 9 10 11 12 13 14 15 16 17 18 19 20 21 22 23 24 25 26 27 28 29 30 31 32 33 34 35 36 37 38 39 40 41 42 43 44 45 46 47 48 49 50
000
ASUS43 KLMK 220102
RWRKY
KENTUCKY REGIONAL WEATHER ROUNDUP
NATIONAL WEATHER SERVICE LOUISVILLE KY
900 PM EDT THU SEP 21 2017

NOTE "FAIR" INDICATES FEW OR NO CLOUDS BELOW 12,000 FEET
WITH NO SIGNIFICANT WEATHER AND/OR OBSTRUCTIONS TO VISIBILITY.

KYZ001>023-026-027-061>063-070>075-220200-
WESTERN AND SOUTH CENTRAL KENTUCKY

CITY           SKY/WX    TMP DP  RH WIND       PRES   REMARKS
PADUCAH        CLEAR     78  70  76 SE5       29.98S
HENDERSON      CLEAR     75  70  84 CALM      30.01R
OWENSBORO      CLEAR     82  71  69 E3        30.02R
HOPKINSVILLE   PTCLDY    79  68  68 CALM      30.01R
BOWLING GREEN  CLEAR     78  70  76 CALM      30.03R
GLASGOW        CLEAR     73  68  86 CALM      30.04R
$$

KYZ024-025-028>034-038-045-046-053-220200-
NORTH CENTRAL KENTUCKY

CITY           SKY/WX    TMP DP  RH WIND       PRES   REMARKS
LOUISVILLE/SDF PTCLDY    84  69  60 E3        30.03R
LOUISVILLE/LOU CLEAR     80  71  74 CALM      30.04R
FORT KNOX      CLEAR     73  71  95 N3        30.03R
$$

KYZ035>037-039>044-047>052-055>060-089>105-220200-
NORTHEAST KENTUCKY

CITY           SKY/WX    TMP DP  RH WIND       PRES   REMARKS
LEXINGTON      CLEAR     76  67  73 CALM      30.07R
COVINGTON      MOCLDY    77  71  82 CALM      30.06R
FRANKFORT      CLEAR     74  68  81 CALM      30.05R
$$

KYZ054-064>069-076>088-106>120-220200-
SOUTHEAST KENTUCKY

CITY           SKY/WX    TMP DP  RH WIND       PRES   REMARKS
JACKSON        CLEAR     74  66  76 CALM      30.09R
LONDON         CLEAR     74  66  76 CALM      30.08R
SOMERSET       NOT AVBL
MIDDLESBORO    CLEAR     70  66  88 CALM      30.09R
MONTICELLO     CLEAR     68  66  93 N12       30.08R
$$




USA.gov is the U.S. government's official web portal to all federal, state and local government web resources and services.